Meteo pe oră la Dzialki

Astăzi, 7 Martie, Duminică

Timp Temperatura Precipitaţii Vânt Presiune Umiditate
00:00 -2°C° 0 mm 4 m/s 748 mmHg 73%
01:00 -4°C° 0 mm 5 m/s 748 mmHg 77%
02:00 -2°C° 0 mm 5 m/s 747 mmHg 77%
03:00 -2°C° 0 mm 5 m/s 747 mmHg 76%
04:00 -2°C° 0 mm 5 m/s 746 mmHg 75%
05:00 -2°C° 0 mm 5 m/s 746 mmHg 73%
06:00 -3°C° 0 mm 6 m/s 746 mmHg 71%
07:00 -3°C° 0 mm 6 m/s 746 mmHg 70%
08:00 -2°C° 0 mm 6 m/s 745 mmHg 68%
09:00 -1°C° 0 mm 6 m/s 745 mmHg 67%
10:00 0°C° 0 mm 7 m/s 745 mmHg 65%
11:00 0°C° 0 mm 7 m/s 744 mmHg 64%
12:00 0°C° 0 mm 7 m/s 744 mmHg 62%
13:00 +2°C° 0 mm 7 m/s 743 mmHg 60%
14:00 +2°C° 0 mm 7 m/s 743 mmHg 61%
15:00 +1°C° 0 mm 6 m/s 742 mmHg 62%
16:00 +1°C° 0 mm 6 m/s 742 mmHg 63%
17:00 0°C° 0 mm 5 m/s 742 mmHg 69%
18:00 -1°C° 0 mm 4 m/s 742 mmHg 74%
19:00 -1°C° 0 mm 3 m/s 742 mmHg 80%
20:00 -2°C° 0 mm 4 m/s 741 mmHg 81%
21:00 -3°C° 0 mm 4 m/s 741 mmHg 82%
22:00 -3°C° 0 mm 4 m/s 741 mmHg 83%
23:00 -3°C° 0 mm 4 m/s 741 mmHg 84%

Mâine, 8 Martie, Luni

Timp Temperatura Precipitaţii Vânt Presiune Umiditate
00:00 -4°C° 0 mm 5 m/s 741 mmHg 86%
01:00 -4°C° 0 mm 5 m/s 741 mmHg 87%
02:00 -4°C° 0.4 mm 5 m/s 741 mmHg 90%
03:00 -4°C° 0.4 mm 5 m/s 741 mmHg 92%
04:00 -3°C° 0.4 mm 4 m/s 741 mmHg 94%
05:00 -3°C° 0.2 mm 4 m/s 741 mmHg 89%
06:00 -2°C° 0.2 mm 3 m/s 741 mmHg 83%
07:00 -3°C° 0.2 mm 2 m/s 742 mmHg 78%
08:00 -2°C° 0 mm 3 m/s 742 mmHg 70%
09:00 -1°C° 0 mm 3 m/s 743 mmHg 63%
10:00 0°C° 0 mm 3 m/s 743 mmHg 56%
11:00 0°C° 0 mm 3 m/s 743 mmHg 52%
12:00 +1°C° 0 mm 3 m/s 743 mmHg 48%
13:00 +1°C° 0 mm 3 m/s 744 mmHg 44%
14:00 +1°C° 0 mm 3 m/s 744 mmHg 46%
15:00 +1°C° 0 mm 3 m/s 744 mmHg 47%
16:00 +1°C° 0 mm 3 m/s 743 mmHg 49%
17:00 0°C° 0 mm 3 m/s 744 mmHg 56%
18:00 -1°C° 0 mm 2 m/s 744 mmHg 63%
19:00 -2°C° 0 mm 2 m/s 745 mmHg 69%
20:00 0°C° 0 mm 1 m/s 745 mmHg 71%
21:00 -1°C° 0 mm 1 m/s 745 mmHg 72%
22:00 -1°C° 0 mm 1 m/s 745 mmHg 74%
23:00 -1°C° 0 mm 1 m/s 745 mmHg 74%

Poimâine, 9 Martie, Marţi

Timp Temperatura Precipitaţii Vânt Presiune Umiditate
00:00 -1°C° 0 mm 1 m/s 745 mmHg 74%
01:00 -1°C° 0 mm 1 m/s 745 mmHg 75%
02:00 -1°C° 0 mm 1 m/s 745 mmHg 75%
03:00 -1°C° 0 mm 1 m/s 745 mmHg 75%
04:00 -1°C° 0 mm 1 m/s 745 mmHg 75%
05:00 -1°C° 0 mm 1 m/s 745 mmHg 74%
06:00 -1°C° 0 mm 1 m/s 745 mmHg 74%
07:00 -1°C° 0 mm 1 m/s 745 mmHg 73%
08:00 0°C° 0 mm 1 m/s 745 mmHg 69%
09:00 -1°C° 0 mm 2 m/s 745 mmHg 65%
10:00 -1°C° 0 mm 2 m/s 745 mmHg 62%
11:00 +1°C° 0 mm 2 m/s 745 mmHg 57%
12:00 +1°C° 0 mm 2 m/s 745 mmHg 53%
13:00 +2°C° 0 mm 2 m/s 745 mmHg 49%
14:00 +1°C° 0 mm 2 m/s 745 mmHg 49%
15:00 +2°C° 0 mm 1 m/s 745 mmHg 49%
16:00 +2°C° 0 mm 1 m/s 745 mmHg 49%
17:00 +1°C° 0 mm 1 m/s 745 mmHg 53%
18:00 -2°C° 0 mm 2 m/s 745 mmHg 56%
19:00 -3°C° 0 mm 2 m/s 745 mmHg 60%
20:00 -3°C° 0 mm 2 m/s 746 mmHg 60%
21:00 -3°C° 0 mm 2 m/s 746 mmHg 60%
22:00 -3°C° 0 mm 2 m/s 746 mmHg 61%
23:00 -3°C° 0 mm 2 m/s 746 mmHg 60%

10 Martie, Miercuri

Timp Temperatura Precipitaţii Vânt Presiune Umiditate
00:00 -1°C° 0 mm 1 m/s 746 mmHg 60%
01:00 -1°C° 0 mm 1 m/s 745 mmHg 59%
02:00 -1°C° 0 mm 1 m/s 745 mmHg 60%
03:00 -1°C° 0 mm 1 m/s 745 mmHg 61%
04:00 -1°C° 0 mm 1 m/s 745 mmHg 62%
05:00 -1°C° 0 mm 1 m/s 745 mmHg 63%
06:00 -1°C° 0 mm 1 m/s 746 mmHg 64%
07:00 -1°C° 0 mm 1 m/s 746 mmHg 65%
08:00 +1°C° 0 mm 1 m/s 746 mmHg 60%
09:00 +2°C° 0 mm 1 m/s 746 mmHg 54%
10:00 +3°C° 0 mm 1 m/s 746 mmHg 49%
11:00 +2°C° 0 mm 2 m/s 746 mmHg 46%
12:00 +3°C° 0 mm 2 m/s 746 mmHg 42%
13:00 +4°C° 0 mm 2 m/s 746 mmHg 39%
14:00 +4°C° 0 mm 2 m/s 745 mmHg 40%
15:00 +4°C° 0 mm 2 m/s 745 mmHg 42%
16:00 +4°C° 0 mm 2 m/s 744 mmHg 43%
17:00 +3°C° 0 mm 2 m/s 744 mmHg 47%
18:00 0°C° 0 mm 3 m/s 744 mmHg 51%
19:00 -1°C° 0 mm 3 m/s 744 mmHg 55%
20:00 -1°C° 0 mm 3 m/s 744 mmHg 57%
21:00 -2°C° 0 mm 4 m/s 744 mmHg 58%
22:00 -2°C° 0 mm 4 m/s 744 mmHg 59%
23:00 -1°C° 0 mm 5 m/s 743 mmHg 62%

11 Martie, Joi

Timp Temperatura Precipitaţii Vânt Presiune Umiditate
00:00 -1°C° 0 mm 5 m/s 743 mmHg 64%
01:00 -1°C° 0 mm 5 m/s 742 mmHg 67%
02:00 -2°C° 0 mm 6 m/s 741 mmHg 68%
03:00 -1°C° 0 mm 6 m/s 741 mmHg 69%
04:00 -1°C° 0 mm 7 m/s 740 mmHg 71%
05:00 -1°C° 0 mm 7 m/s 739 mmHg 70%
06:00 0°C° 0 mm 8 m/s 739 mmHg 69%
07:00 0°C° 0 mm 8 m/s 738 mmHg 68%
08:00 0°C° 0.1 mm 9 m/s 737 mmHg 71%
09:00 +1°C° 0.1 mm 9 m/s 737 mmHg 74%
10:00 +1°C° 0.1 mm 10 m/s 736 mmHg 78%
11:00 +1°C° 0.3 mm 10 m/s 736 mmHg 79%
12:00 +1°C° 0.3 mm 10 m/s 735 mmHg 80%
13:00 +1°C° 0.3 mm 10 m/s 735 mmHg 81%
14:00 +3°C° 0 mm 9 m/s 735 mmHg 78%
15:00 +5°C° 0 mm 9 m/s 734 mmHg 75%
16:00 +6°C° 0 mm 8 m/s 734 mmHg 72%
17:00 +6°C° 0.1 mm 9 m/s 734 mmHg 73%
18:00 +6°C° 0.1 mm 9 m/s 734 mmHg 74%
19:00 +6°C° 0.1 mm 9 m/s 733 mmHg 75%
20:00 +5°C° 0 mm 10 m/s 733 mmHg 75%
21:00 +5°C° 0 mm 10 m/s 734 mmHg 74%
22:00 +5°C° 0 mm 10 m/s 734 mmHg 74%
23:00 +5°C° 0.5 mm 9 m/s 734 mmHg 78%

12 Martie, Vineri

Timp Temperatura Precipitaţii Vânt Presiune Umiditate
00:00 +5°C° 0.5 mm 8 m/s 733 mmHg 81%
01:00 +5°C° 0.5 mm 7 m/s 733 mmHg 85%
02:00 +4°C° 0 mm 7 m/s 733 mmHg 83%
03:00 +4°C° 0 mm 6 m/s 733 mmHg 82%
04:00 +4°C° 0 mm 6 m/s 733 mmHg 81%
05:00 +4°C° 0 mm 6 m/s 733 mmHg 81%
06:00 +4°C° 0 mm 6 m/s 733 mmHg 81%
07:00 +4°C° 0 mm 6 m/s 732 mmHg 81%
08:00 +4°C° 0.1 mm 7 m/s 732 mmHg 77%
09:00 +5°C° 0.1 mm 7 m/s 732 mmHg 73%
10:00 +5°C° 0.1 mm 8 m/s 732 mmHg 69%
11:00 +6°C° 0.1 mm 9 m/s 732 mmHg 62%
12:00 +7°C° 0.1 mm 9 m/s 732 mmHg 55%
13:00 +8°C° 0.1 mm 9 m/s 732 mmHg 48%
14:00 +8°C° 0.1 mm 9 m/s 732 mmHg 48%
15:00 +7°C° 0.1 mm 8 m/s 732 mmHg 49%
16:00 +7°C° 0.1 mm 8 m/s 732 mmHg 49%
17:00 +6°C° 0 mm 7 m/s 732 mmHg 54%
18:00 +6°C° 0 mm 5 m/s 733 mmHg 59%
19:00 +5°C° 0 mm 4 m/s 733 mmHg 64%
20:00 +5°C° 0 mm 4 m/s 734 mmHg 67%
21:00 +4°C° 0 mm 4 m/s 734 mmHg 69%
22:00 +4°C° 0 mm 4 m/s 734 mmHg 71%
23:00 +3°C° 0 mm 4 m/s 734 mmHg 72%
Arată mai mult

Formular de consimțământ

Meteoprog și furnizorii noștri de servicii pot stoca și accesa date personale, precum cookies, identificatori de dispozitiv sau alte tehnologii similare pe dispozitivul dumneavoastră și procesa astfel de date pentru a personaliza conținutul și reclamele, dar și pentru a oferi caracteristici de social media și pentru a analiza traficul.

  • Stocarea și/sau accesarea informațiilor pe dispozitivul dumneavoastră

    Cookies, identificatori de dispozitiv sau alte informații pot fi stocate sau accesate pe dispozitiv în scopurile indicate mai sus.

  • Reclame și conținut personalizat, evaluarea reclamelor și a conținutului, informații despre audiențe și dezvoltarea produselor

    Reclamele și conținutul pot fi personalizate pe baza unui profil. Pot fi adăugate date suplimentare pentru a personaliza mai bine reclamele și conținutul. Performanța reclamelor și conținutului poate fi măsurată. Pot fi obținute informații despre utilizatorii care au văzut reclamele și conținutul. Aceste date pot fi utilizate pentru a dezvolta sau îmbunătăți experiența utilizatorilor, sistemele și software-ul.

Dând clic pe ‘Sunt de acord’, permiteți utilizarea cookie-urilor menționate, a identificatorilor de dispozitiv, balizelor web sau altor tehnologii similare. Setările pot fi modificate din browser-ul dispozitivului dumneavoastră.

În anumite scopuri, interesele legitime pot prima asupra consimțământului. Puteți citi mai multe informații în acest sens în Politica privind Confidențialitatea Datelor și Cookie.